Regional Weather Roundup
Issued by NWS

Home | Current Version | Previous Version | Text Only | Print | Product List | Glossary Off
Versions: 1 2 3 4 5 6 7 8 9 10 11 12 13 14 15 16 17 18 19 20 21 22 23 24 25 26 27 28 29 30 31 32 33 34 35 36 37 38 39 40 41 42 43 44 45 46 47 48 49 50

000
ASUS43 KFSD 250410
RWRSD

WEATHER ROUNDUP FOR SOUTH DAKOTA
NATIONAL WEATHER SERVICE SIOUX FALLS SD
1100 PM CDT THU MAY 24 2018

NOTE: "FAIR" INDICATES FEW OR NO CLOUDS BELOW 12,000 FEET WITH NO
SIGNIFICANT WEATHER AND/OR OBSTRUCTIONS TO VISIBILITY.


SDZ001>005-009-010-012>017-250500-
NORTHWEST AND NORTH CENTRAL SOUTH DAKOTA

CITY           SKY/WX    TMP DP  RH WIND       PRES   REMARKS
BUFFALO          N/A     66  50  56 W7        29.83R
FAITH            N/A     67  59  75 SW8       29.88R
MOBRIDGE       CLEAR     68  58  70 CALM      29.80R
$$

SDZ012>016-024>037-041>051-057-063-072>074-250500-
SOUTHWEST AND SOUTH CENTRAL SOUTH DAKOTA

CITY           SKY/WX    TMP DP  RH WIND       PRES   REMARKS
RAPID CTY ARPT CLEAR     63  54  72 CALM      29.93R
PIERRE         PTCLDY    70  58  65 CALM      29.83S
CUSTER         CLEAR     59  44  57 CALM      30.06S
ELLSWORTH AFB  CLEAR     67  57  70 SW3       29.92S
PHILIP         PTCLDY    68  61  78 SE5       29.87S
PINE RIDGE     CLEAR     62  57  83 NE5       29.95R
SPEARFISH      FAIR      61  50  67 S10       29.98R
WINNER         FAIR      70  53  54 SW6       29.88R
$$

SDZ004>011-016>023-039-040-250500-
NORTHEAST SOUTH DAKOTA

CITY           SKY/WX    TMP DP  RH WIND       PRES   REMARKS
ABERDEEN       MOCLDY    70  56  61 SW8       29.79S
WATERTOWN      CLEAR     71  63  75 SW10      29.83R
BROOKINGS      CLEAR     71  63  75 SW3       29.87R
SISSETON         N/A     76  66  71 SW9       29.78R
$$

SDZ017-020-022-023-036>040-048>070-250500-
SOUTHEAST SOUTH DAKOTA

CITY           SKY/WX    TMP DP  RH WIND       PRES   REMARKS
SIOUX FALLS    CLOUDY    67  62  84 CALM      29.87R
HURON          MOCLDY    71  64  78 S7        29.82S
CHAMBERLAIN    CLOUDY    73  63  71 W6        29.86S
MITCHELL       PTCLDY    67  60  78 SE7       29.84S
YANKTON        CLOUDY    71  62  73 SW3       29.86F
$$

ABBREVIATIONS USED IN REMARKS
   TC - TEMPERATURE IN CELSIUS
  WCI - WIND CHILL INDEX
   HX - HEAT INDEX
  VSB - VISIBILITY





USA.gov is the U.S. government's official web portal to all federal, state and local government web resources and services.